Location: Ajisawe
(8.4333°N, 4.3833°E)
Time: 12:47:03
(UTC+00:00)

Courier 1B Rocket - Pass Details

Date: 29 April 2021
Orbit: 920 x 1202 km, 28.2° (Epoch: 07 May)

Event Time Altitude Azimuth Distance (km) Brightness Sun altitude
Rises 21:04:19 0° 307° (NW) 3,659 8.8 -45.0°
Reaches altitude 10° 21:07:00 10° 313° (NW) 2,748 7.9 -45.6°
Enters shadow 21:08:44 19° 319° (NW) 2,198 7.2 -46.0°
Maximum altitude 21:13:26 48° 27° (NNE) 1,331 - -47.0°
Drops below altitude 10° 21:20:22 10° 100° (E) 2,952 - -48.4°
Sets 21:23:20 0° 105° (ESE) 3,953 - -49.0°
